Location: Devore Heights
(34.2372°N, 117.4156°W)
Time: 09:07:57
(UTC+00:00)

A-11 Canister half - Pass Details

Date: 14 September 2024
Orbit: 1515 x 1684 km, 47.2° (Epoch: 07 October)

Event Time Altitude Azimuth Distance (km) Brightness Sun altitude
Rises 11:24:01 0° 292° (WNW) 4,675 - -26.5°
Reaches altitude 10° 11:28:07 10° 276° (W) 3,707 - -25.7°
Maximum altitude 11:34:13 20° 235° (SW) 3,047 - -24.6°
Exits shadow 11:40:15 10° 194° (SSW) 3,739 10.7 -23.4°
Drops below altitude 10° 11:40:26 10° 193° (SSW) 3,775 10.7 -23.4°
Sets 11:44:43 0° 177° (S) 4,788 11.4 -22.5°
